Waarnemingen

Advertentie
Mijn weer
Konstanz, Duitsland (10929): temperatuur & dauwpunt: 17.10.2017 19:00:00 - 23.10.2017 19:00:00 (CEST)Konstanz, Duitsland (10929): temperatuur 5cm & temperatuur -5cm: 17.10.2017 19:00:00 - 23.10.2017 19:00:00 (CEST)Konstanz, Duitsland (10929): temperatuur -20cm & temperatuur -100cm: 17.10.2017 19:00:00 - 23.10.2017 19:00:00 (CEST)Konstanz, Duitsland (10929): windsnelheid & windstoten: 17.10.2017 19:00:00 - 23.10.2017 19:00:00 (CEST)Konstanz, Duitsland (10929): windrichting: 17.10.2017 19:00:00 - 23.10.2017 19:00:00 (CEST)Konstanz, Duitsland (10929): luchtdruk: 17.10.2017 19:00:00 - 23.10.2017 19:00:00 (CEST)Konstanz, Duitsland (10929): zicht: 17.10.2017 19:00:00 - 23.10.2017 19:00:00 (CEST)Konstanz, Duitsland (10929): Zonneschijnduur: 17.10.2017 19:00:00 - 23.10.2017 19:00:00 (CEST)Konstanz, Duitsland (10929): neerslag: 17.10.2017 19:00:00 - 23.10.2017 19:00:00 (CEST)
Datum & Tijd tt [°C] td [°C] tt 5cm [°C] tt -5cm [°C] tt -20cm [°C] tt -100cm [°C] ff [km/u] ff [kn] fx [km/u] fx [kn] dd ppp [hPa] vv [km] sd [min] rr [mm]
23.10.2017 19:00:00 - - - - - - - - - - - - - - -
23.10.2017 18:00:00 8,9 6,2 8,3 11,0 11,8 14,8 12 6 30 16 W 1024,9 10 0 0,1
23.10.2017 17:00:00 9,6 4,7 9,3 11,7 11,7 14,8 16 8 27 15 WZW 1023,9 70 9 0,0
23.10.2017 16:00:00 10,4 5,9 10,9 11,6 11,5 14,8 10 5 22 12 WZW 1023,5 70 16 0,0
23.10.2017 15:00:00 8,9 5,8 8,8 11,1 11,4 14,8 14 7 32 17 WNW 1023,8 70 0 0,4
23.10.2017 14:00:00 9,7 5,5 10,8 11,0 11,3 14,8 15 8 30 16 W 1023,3 70 0 0,0
23.10.2017 13:00:00 9,0 5,6 10,0 10,2 11,2 14,9 16 9 29 16 WZW 1023,5 70 0 0,0
23.10.2017 12:00:00 8,3 5,1 8,8 9,8 11,2 14,9 15 8 26 14 W 1023,6 70 0 0,0
23.10.2017 11:00:00 7,8 5,2 7,8 9,4 11,2 14,9 13 7 26 14 WZW 1023,5 - 0 0,0
23.10.2017 10:00:00 7,1 5,2 7,0 9,1 11,3 14,9 11 6 29 16 WZW 1023,4 18 0 0,3
23.10.2017 09:00:00 7,2 4,9 7,0 9,0 11,3 14,9 14 8 28 15 W 1023,0 64 0 0,0
23.10.2017 08:00:00 7,1 4,7 6,6 9,1 11,4 14,9 15 8 27 15 W 1022,4 70 0 0,0
23.10.2017 07:00:00 7,0 4,7 6,5 9,1 11,5 14,9 14 8 30 16 WZW 1022,2 70 0 0,0
23.10.2017 06:00:00 7,0 4,9 6,5 9,2 11,6 14,9 14 7 29 15 WZW 1021,8 70 0 0,1
23.10.2017 05:00:00 6,8 5,2 6,5 9,2 11,7 14,9 16 9 28 15 WZW 1021,6 10 0 0,1
23.10.2017 04:00:00 7,2 4,6 6,5 9,3 11,8 14,9 16 8 31 17 W 1021,3 70 0 0,0
23.10.2017 03:00:00 7,1 4,9 6,5 9,5 12,0 14,9 14 8 34 19 WZW 1021,4 69 0 0,3
23.10.2017 02:00:00 7,2 4,9 6,6 9,5 12,1 14,9 16 9 26 14 W 1021,4 26 0 0,2
23.10.2017 01:00:00 7,6 4,4 6,9 9,6 12,3 14,9 16 8 32 17 W 1021,4 70 0 0,0
23.10.2017 00:00:00 7,6 4,7 6,9 9,8 12,5 14,9 18 10 32 18 W 1021,3 70 0 0,0
22.10.2017 23:00:00 7,7 4,5 6,7 10,0 12,6 14,9 16 9 29 15 W 1021,0 68 0 0,0
22.10.2017 22:00:00 7,8 4,5 6,7 10,4 12,8 14,9 14 8 31 17 W 1021,0 70 0 0,0
22.10.2017 21:00:00 7,8 5,0 7,0 10,6 13,0 14,9 15 8 30 16 WZW 1020,7 70 0 0,0
22.10.2017 20:00:00 8,3 3,9 6,6 10,8 13,2 14,9 16 9 37 20 W 1020,2 70 0 0,0
22.10.2017 19:00:00 7,5 4,5 6,4 11,4 13,4 14,9 15 8 30 16 WZW 1019,7 70 10 0,0
22.10.2017 18:00:00 9,2 4,9 7,9 12,4 13,5 14,9 14 8 40 21 W 1018,9 70 23 0,9
22.10.2017 17:00:00 8,3 5,2 8,1 13,2 13,4 14,9 18 10 35 19 W 1019,0 22 20 0,3
22.10.2017 16:00:00 9,5 5,4 9,1 13,5 13,3 14,9 16 8 41 22 W 1018,7 42 36 0,0
22.10.2017 15:00:00 11,0 4,1 14,0 13,0 13,3 14,9 26 14 45 24 ZW 1018,3 41 22 0,0
22.10.2017 14:00:00 11,2 3,8 12,5 13,1 13,1 14,9 19 11 46 25 WZW 1018,7 70 26 0,0
22.10.2017 13:00:00 12,2 2,5 14,3 13,0 13,0 14,9 19 10 46 25 WZW 1019,1 70 30 0,0
22.10.2017 12:00:00 12,3 3,0 14,8 12,2 13,0 14,9 22 12 48 26 W 1019,5 70 43 0,0
22.10.2017 11:00:00 10,3 3,0 9,9 10,9 13,1 14,9 18 10 44 24 W 1020,1 70 2 0,0
22.10.2017 10:00:00 9,9 3,9 8,7 10,8 13,3 14,9 19 11 42 23 W 1020,4 70 1 0,0
22.10.2017 09:00:00 9,7 3,9 7,7 11,0 13,4 14,9 21 11 44 24 W 1020,3 70 0 0,0
22.10.2017 08:00:00 9,9 6,0 8,2 11,3 13,6 14,9 16 9 29 16 W 1019,4 70 0 0,0
22.10.2017 07:00:00 9,8 7,1 8,4 11,7 13,8 14,9 10 5 21 11 W 1019,5 70 0 0,0
22.10.2017 06:00:00 9,8 7,3 9,1 11,9 13,9 14,9 4 2 7 4 W 1019,6 70 0 0,0
22.10.2017 05:00:00 9,6 7,7 8,9 12,1 14,1 14,9 3 1 8 4 ONO 1019,8 70 0 0,0
22.10.2017 04:00:00 9,9 7,0 9,0 12,2 14,3 14,9 7 4 17 9 NW 1020,3 70 0 0,0
22.10.2017 03:00:00 9,2 7,9 9,0 12,4 14,5 14,9 5 3 22 12 NW 1021,2 70 0 0,0
22.10.2017 02:00:00 9,1 7,4 8,6 12,7 14,8 14,9 14 7 32 17 ZW 1021,4 70 0 1,3
22.10.2017 01:00:00 9,8 7,9 9,2 13,2 15,0 14,9 20 11 39 21 WZW 1021,5 34 0 2,4
22.10.2017 00:00:00 10,7 8,8 10,0 13,9 15,2 14,9 22 12 52 28 WZW 1020,8 6 0 1,2
21.10.2017 23:00:00 11,5 8,8 10,8 14,5 15,4 14,9 16 9 36 19 WZW 1019,2 4,7 0 0,2
21.10.2017 22:00:00 13,7 9,9 13,5 15,0 15,5 14,9 16 9 39 21 WNW 1017,2 70 0 0,0
21.10.2017 21:00:00 17,0 11,6 15,4 15,4 15,6 14,9 16 8 29 16 W 1015,3 24 0 0,0
21.10.2017 20:00:00 17,0 11,6 15,1 15,8 15,7 14,9 7 4 16 9 ZZW 1014,8 27 0 0,0
21.10.2017 19:00:00 17,3 11,8 15,1 16,3 15,7 14,9 7 4 9 5 Z 1014,7 42 0 0,0
21.10.2017 18:00:00 18,3 11,9 16,4 16,9 15,6 14,9 7 4 10 5 ZO 1014,5 49 5 0,0
21.10.2017 17:00:00 19,5 11,3 18,8 17,4 15,5 14,9 6 4 14 7 WZW 1014,8 55 0 0,0
21.10.2017 16:00:00 20,0 11,6 20,3 17,6 15,3 14,9 7 4 16 9 WZW 1015,0 55 1 0,0
21.10.2017 15:00:00 19,4 11,2 20,0 17,4 15,0 14,9 12 6 18 10 ZZW 1015,5 54 0 0,0
21.10.2017 14:00:00 18,1 12,1 19,1 17,5 14,7 14,9 6 3 12 7 O 1016,7 34 19 0,0
21.10.2017 13:00:00 17,5 12,1 19,6 17,3 14,4 14,9 8 4 13 7 OZO 1017,3 35 52 0,0
21.10.2017 12:00:00 17,5 12,2 20,6 16,0 14,1 14,9 7 4 13 7 OZO 1017,8 30 59 0,0
21.10.2017 11:00:00 15,7 12,4 15,9 14,7 14,0 14,9 6 3 9 5 O 1018,3 21 26 0,0
21.10.2017 10:00:00 15,2 12,5 14,5 13,9 14,0 14,9 3 2 4 2 O 1018,4 21 0 0,0
21.10.2017 09:00:00 14,1 11,7 13,3 13,3 14,0 14,9 1 1 6 3 Z 1018,2 24 0 0,0
21.10.2017 08:00:00 13,4 11,4 12,1 13,3 14,0 14,9 4 2 6 4 Z 1017,8 23 0 0,0
21.10.2017 07:00:00 13,1 11,9 12,4 13,4 14,1 14,9 4 2 6 3 Z 1017,8 13 0 0,0
21.10.2017 06:00:00 13,0 11,7 12,4 13,4 14,1 14,9 3 1 6 3 ZZW 1018,0 15 0 0,0
21.10.2017 05:00:00 13,0 11,6 12,5 13,5 14,2 14,9 3 1 7 4 N 1018,0 15 0 0,3
21.10.2017 04:00:00 13,5 11,5 12,8 13,5 14,2 14,9 4 2 7 4 O 1017,9 19 0 0,0
21.10.2017 03:00:00 13,5 11,0 12,9 13,5 14,3 14,9 3 2 8 5 ONO 1017,9 23 0 0,0
21.10.2017 02:00:00 13,8 11,1 13,1 13,6 14,3 14,9 5 3 10 5 O 1017,9 22 0 0,0
21.10.2017 01:00:00 13,9 11,6 13,2 13,7 14,4 14,9 6 4 10 5 O 1017,9 20 0 0,0
21.10.2017 00:00:00 13,7 11,4 13,1 13,7 14,5 14,9 7 4 9 5 O 1017,9 23 0 0,0
20.10.2017 23:00:00 13,9 10,7 12,5 13,9 14,6 14,9 6 4 10 5 OZO 1018,0 28 0 0,0
20.10.2017 22:00:00 14,7 10,2 13,2 14,1 14,8 14,9 9 5 13 7 WZW 1017,8 34 0 0,0
20.10.2017 21:00:00 14,4 11,1 13,1 14,3 14,9 14,9 7 4 19 10 ZZW 1017,7 29 0 0,0
20.10.2017 20:00:00 15,0 10,4 12,8 14,9 15,0 14,9 7 4 16 8 W 1017,8 39 0 0,0
20.10.2017 19:00:00 15,5 10,6 14,5 15,4 15,0 14,9 9 5 17 9 W 1017,6 39 0 0,0
20.10.2017 18:00:00 16,0 10,8 15,2 16,0 15,0 14,9 6 3 25 14 WZW 1017,3 41 0 0,1
20.10.2017 17:00:00 17,7 8,2 17,2 16,9 14,8 14,9 14 7 32 17 W 1016,7 51 8 0,0
20.10.2017 16:00:00 19,6 8,7 22,0 17,9 14,4 14,9 11 6 19 11 W 1015,8 42 18 0,0
20.10.2017 15:00:00 20,4 9,3 24,7 18,1 13,9 14,9 5 3 9 5 ZW 1015,3 29 52 0,0
20.10.2017 14:00:00 17,1 10,2 18,8 17,3 13,3 14,9 5 3 8 5 O 1016,1 19 49 0,0
20.10.2017 13:00:00 17,2 11,2 20,5 15,7 12,9 14,9 4 2 8 4 Z 1016,5 19 60 0,0
20.10.2017 12:00:00 15,5 10,3 16,4 13,5 12,7 14,9 3 1 6 3 ZO 1016,9 16 39 0,0
20.10.2017 11:00:00 12,4 10,6 13,1 11,9 12,6 14,9 2 1 6 3 Z 1017,1 10 0 0,0
20.10.2017 10:00:00 11,9 10,1 11,9 11,0 12,6 14,9 1 1 5 3 N 1016,9 11 51 0,0
20.10.2017 09:00:00 9,4 8,9 8,6 10,2 12,8 14,9 5 3 9 5 N 1017,0 6 29 0,0
20.10.2017 08:00:00 8,7 8,2 6,8 10,3 12,9 14,9 6 3 9 5 NNO 1016,4 2,6 0 0,0
20.10.2017 07:00:00 9,3 8,6 6,8 10,5 13,1 14,9 4 2 6 3 ZO 1016,3 9 0 0,0
20.10.2017 06:00:00 9,3 8,8 6,3 10,8 13,3 14,9 3 1 4 2 ZW 1016,1 6 0 0,0
20.10.2017 05:00:00 9,6 9,0 7,0 11,1 13,5 14,9 3 2 5 3 N 1015,8 9 0 0,0
20.10.2017 04:00:00 9,8 9,2 7,4 11,4 13,7 14,9 3 2 6 4 NNW 1015,5 8 0 0,0
20.10.2017 03:00:00 10,8 9,9 9,0 11,7 13,9 14,9 6 3 9 5 NW 1015,0 12 0 0,0
20.10.2017 02:00:00 11,1 10,1 8,8 12,0 14,1 15,0 7 4 11 6 WNW 1014,4 15 0 0,0
20.10.2017 01:00:00 11,2 9,8 9,3 12,4 14,3 15,0 5 3 13 7 WNW 1013,9 12 0 0,0
20.10.2017 00:00:00 12,1 11,2 10,6 12,7 14,5 15,0 8 4 14 7 WNW 1013,6 14 0 0,0
19.10.2017 23:00:00 12,1 10,6 9,7 13,0 14,7 15,0 8 4 10 5 WNW 1013,6 7 0 0,0
19.10.2017 22:00:00 12,0 10,4 9,0 13,4 14,9 15,0 4 2 6 3 N 1013,3 19 0 0,0
19.10.2017 21:00:00 12,9 10,5 10,2 14,1 15,1 15,0 4 2 7 4 OZO 1013,0 21 0 0,0
19.10.2017 20:00:00 13,7 10,4 10,2 14,8 15,3 15,0 2 1 3 2 Z 1013,0 24 0 0,0
19.10.2017 19:00:00 14,8 10,6 11,4 15,7 15,4 15,0 3 2 4 2 Z 1012,6 27 9 0,0
19.10.2017 18:00:00 16,7 10,8 14,5 16,9 15,3 15,0 4 2 6 3 NO 1012,0 26 60 0,0
19.10.2017 17:00:00 20,1 9,9 18,5 18,2 15,0 15,0 3 2 8 4 NO 1011,9 36 60 0,0
19.10.2017 16:00:00 18,7 9,5 21,9 18,7 14,5 15,0 5 3 9 5 Z 1012,5 24 60 0,0
19.10.2017 15:00:00 17,6 9,3 21,3 18,2 14,0 15,0 5 3 9 5 OZO 1013,3 20 60 0,0
19.10.2017 14:00:00 16,2 9,7 20,4 17,1 13,6 15,0 4 2 8 4 ZZO 1014,5 19 60 0,0
19.10.2017 13:00:00 14,4 9,9 19,2 15,6 13,2 15,0 6 3 11 6 ZW 1015,7 13 43 0,0
19.10.2017 12:00:00 13,9 10,2 16,4 14,0 13,0 15,0 4 2 7 4 W 1016,1 13 25 0,0
19.10.2017 11:00:00 11,8 9,7 14,0 12,9 12,8 15,0 5 3 9 5 NO 1016,2 8 16 0,0
19.10.2017 10:00:00 10,1 9,5 11,0 11,7 12,8 15,0 2 1 5 3 ZZO 1016,5 4,1 4 0,0
19.10.2017 09:00:00 8,9 8,5 9,4 11,1 12,9 15,0 2 1 8 4 N 1016,5 0,3 0 0,0
19.10.2017 08:00:00 8,3 8,0 8,5 11,0 13,0 15,0 4 2 10 5 WNW 1016,2 0,2 0 0,0
19.10.2017 07:00:00 8,1 8,1 8,3 10,9 13,1 15,0 6 4 11 6 WNW 1016,3 0,1 0 0,0
19.10.2017 06:00:00 8,1 8,0 8,3 10,9 13,2 15,0 6 4 14 8 WNW 1016,4 0,1 0 0,0
19.10.2017 05:00:00 7,5 7,2 7,2 10,9 13,4 15,0 5 3 8 5 NW 1016,6 1,1 0 0,0
19.10.2017 04:00:00 7,6 7,4 6,9 11,1 13,6 15,0 4 2 7 4 WNW 1016,6 0,4 0 0,0
19.10.2017 03:00:00 8,4 8,0 6,7 11,5 13,8 15,0 4 2 9 5 NW 1016,9 1,8 0 0,0
19.10.2017 02:00:00 9,1 8,8 8,4 11,6 14,1 15,0 5 3 7 4 W 1016,8 0,1 0 0,0
19.10.2017 01:00:00 9,8 9,0 7,7 12,0 14,3 15,0 6 3 9 5 NNO 1016,7 3,1 0 0,0
19.10.2017 00:00:00 9,9 9,2 7,6 12,4 14,5 15,0 5 3 9 5 NNO 1016,7 6 0 0,0
18.10.2017 23:00:00 11,0 10,2 9,6 12,9 14,8 15,0 7 4 15 8 NNO 1016,4 4,5 0 0,0
18.10.2017 22:00:00 11,5 10,7 10,3 13,3 15,0 15,0 7 4 10 5 NNO 1016,3 4,5 0 0,0
18.10.2017 21:00:00 11,9 11,1 10,1 13,9 15,2 15,0 8 4 10 5 ONO 1016,0 3,7 0 0,0
18.10.2017 20:00:00 13,3 12,0 10,6 14,6 15,4 15,0 6 3 10 5 ZO 1015,7 7 0 0,0
18.10.2017 19:00:00 13,9 10,3 10,7 15,6 15,5 15,0 4 2 6 3 OZO 1015,3 16 24 0,0
18.10.2017 18:00:00 16,6 11,0 14,2 16,8 15,4 15,0 3 2 9 5 O 1014,6 19 60 0,0
18.10.2017 17:00:00 18,4 9,2 17,3 18,2 15,2 15,0 7 4 13 7 W 1014,4 16 60 0,0
18.10.2017 16:00:00 18,3 9,5 21,8 18,8 14,7 15,0 9 5 13 7 W 1014,7 14 60 0,0
18.10.2017 15:00:00 17,9 9,3 22,9 18,4 14,3 15,0 5 3 13 7 WZW 1015,1 18 60 0,0
18.10.2017 14:00:00 16,7 9,1 21,6 17,3 13,8 15,0 6 3 14 8 WNW 1016,0 19 60 0,0
18.10.2017 13:00:00 13,9 9,6 18,2 15,8 13,5 15,0 6 4 10 6 W 1017,3 11 60 0,0
18.10.2017 12:00:00 10,9 10,2 13,8 13,8 13,3 15,0 3 2 9 5 WNW 1018,2 2,4 2 0,0
18.10.2017 11:00:00 10,1 9,7 11,9 12,8 13,2 15,0 5 3 11 6 NW 1018,5 0,3 0 0,0
18.10.2017 10:00:00 10,0 9,8 11,2 12,3 13,2 15,0 3 1 7 4 W 1018,8 0,3 0 0,0
18.10.2017 09:00:00 9,6 9,5 10,3 11,9 13,3 15,0 5 3 8 5 WZW 1018,7 0,1 0 0,0
18.10.2017 08:00:00 9,3 9,0 9,7 11,7 13,3 15,0 6 4 11 6 W 1018,5 0,1 0 0,0
18.10.2017 07:00:00 9,7 9,5 10,0 11,5 13,4 15,0 6 3 10 5 WNW 1018,6 0,2 0 0,0
18.10.2017 06:00:00 8,7 8,5 8,5 11,5 13,6 15,0 5 3 8 4 WNW 1019,0 0,3 0 0,0
18.10.2017 05:00:00 9,0 8,7 7,7 11,5 13,8 15,0 5 3 8 4 W 1019,2 0,4 0 0,0
18.10.2017 04:00:00 9,7 9,4 8,2 11,6 14,0 15,0 6 4 8 4 WNW 1019,5 0,3 0 0,0
18.10.2017 03:00:00 9,9 9,4 7,7 12,0 14,2 15,0 2 1 8 5 NNW 1019,8 5 0 0,0
18.10.2017 02:00:00 10,8 10,4 8,2 12,4 14,4 15,0 6 3 10 5 NNO 1020,0 6 0 0,0
18.10.2017 01:00:00 11,3 10,7 10,1 12,8 14,6 15,0 6 3 9 5 NNO 1020,1 9 0 0,0
18.10.2017 00:00:00 11,7 11,1 10,1 13,1 14,8 15,0 5 3 6 4 NNO 1020,2 10 0 0,0
17.10.2017 23:00:00 11,9 11,0 10,1 13,5 15,0 15,0 5 3 6 3 NO 1020,3 10 0 0,0
17.10.2017 22:00:00 12,5 11,0 10,5 13,9 15,2 15,0 2 1 6 4 NW 1020,2 18 0 0,0
17.10.2017 21:00:00 13,0 11,4 11,0 14,3 15,4 15,0 6 3 7 4 NW 1020,3 9 0 0,0
17.10.2017 20:00:00 13,2 10,2 9,9 14,9 15,5 15,0 5 3 6 3 W 1020,5 24 0 0,0
17.10.2017 19:00:00 14,4 9,7 11,5 15,9 15,6 15,0 3 1 4 2 ZZW 1020,1 33 21 0,0

tt = temperatuur
td = dauwpunt
tt 5cm = temperatuur 5cm
tt -5cm = temperatuur -5cm
tt -20cm = temperatuur -20cm
tt -100cm = temperatuur -100cm
ff = windsnelheid
fx = windstoten
dd = windrichting
ppp = luchtdruk
vv = zicht
sd = Zonneschijnduur
rr = neerslag

Weerstations in de omgeving